Flag for Russia Weather past 2 weeks in Khanty-Mansiysk, Russia

Now
46 °F

Mostly cloudy.


Feels Like: 41 °F
Forecast: 44 / 49 °F
Wind: 10 mph from Southwest

Location: Hanty-Mansijsk

Current Time: Jul 25, 2014 at 7:50:07 PM

Latest Report: Jul 25, 2014 at 7:00 PM


Visibility: N/A

Pressure: 29.45 "Hg

Humidity: 87%

Dew point: 43 °F

Location of Khanty-MansiyskLocation

Historic Weather in Khanty-Mansiysk — Graph

°F

Khanty-Mansiysk temperature yesterday

Maximum temperature yesterday: 59 °F (at 2:00 AM)
Minimum temperature yesterday: 48 °F (at 9:30 PM)
Average temperature yesterday: 53 °F

Past Weeks' High & Low Weather Summary

 TemperatureHumidityPressure
High73 °F (Jul 16, 4:00 PM)100% (Jul 22, 7:30 PM)29.95 "Hg (Jul 22, 7:30 PM)
Low43 °F (Jul 19, 5:00 AM)32% (Jul 20, 5:30 PM)29.30 "Hg (Jul 24, 2:00 AM)
Average55 °F73%29.67 "Hg
* Reported Jul 10 6:00 PM — Jul 25 6:30 PM, Khanty-Mansiysk, Weather by CustomWeather, © 2014

Note: Actual official high and low records may vary slightly from our data, if they occured in-between our weather recording intervals... More about our weather records

Advertising

Khanty-Mansiysk weather history for previous 24 hours

 ConditionsComfort  
Time TempWeatherWind HumidityBarometerVisibility
6:30 PM
Jul 25
48 °FMostly cloudy.13 mph82%29.45 "HgN/A
6:00 PM46 °FMostly cloudy.10 mph87%29.45 "HgN/A
5:30 PM46 °FMostly cloudy.10 mph87%29.45 "HgN/A
5:00 PM46 °FMostly cloudy.10 mph87%29.45 "HgN/A
4:30 PM46 °FMostly cloudy.8 mph87%29.45 "HgN/A
4:00 PM46 °FMostly cloudy.8 mph87%29.45 "HgN/A
3:30 PM46 °FMostly cloudy.13 mph87%29.45 "HgN/A
3:00 PM46 °FMostly cloudy.13 mph87%29.42 "HgN/A
2:30 PM46 °FSprinkles. Mostly cloudy.8 mph93%29.42 "HgN/A
2:00 PM46 °FSprinkles. Mostly cloudy.13 mph87%29.42 "HgN/A
1:30 PM46 °FSprinkles. Mostly cloudy.15 mph87%29.42 "HgN/A
1:00 PM46 °FSprinkles. Mostly cloudy.13 mph87%29.42 "HgN/A
12:30 PM48 °FSprinkles. Mostly cloudy.15 mph82%29.39 "HgN/A
12:00 PM48 °FMostly cloudy.13 mph82%29.39 "HgN/A
11:30 AM48 °FMostly cloudy.13 mph82%29.39 "HgN/A
11:00 AM48 °FMostly cloudy.13 mph82%29.39 "HgN/A
10:00 AM46 °FMostly cloudy.15 mph87%29.39 "HgN/A
9:30 AM46 °FSprinkles. Mostly cloudy.13 mph87%29.39 "HgN/A
8:30 AM46 °FSprinkles. Mostly cloudy.8 mph87%29.39 "Hg4 mi
8:00 AM46 °FSprinkles. Mostly cloudy.8 mph87%29.39 "HgN/A
7:30 AM46 °FSprinkles. Mostly cloudy.8 mph87%29.39 "HgN/A
7:00 AM48 °FSprinkles. Mostly cloudy.8 mph76%29.39 "HgN/A
6:30 AM48 °FMostly cloudy.6 mph82%29.39 "HgN/A
6:00 AM48 °FMostly cloudy.6 mph82%29.39 "HgN/A
5:30 AM46 °FMostly cloudy.6 mph82%29.39 "HgN/A
5:00 AM46 °FMostly cloudy.6 mph82%29.42 "HgN/A
4:30 AM46 °FMostly cloudy.6 mph87%29.42 "HgN/A
4:00 AM46 °FMostly cloudy.6 mph87%29.42 "HgN/A
3:30 AM46 °FMostly cloudy.6 mph87%29.42 "HgN/A
3:00 AM46 °FSprinkles. Mostly cloudy.6 mph87%29.42 "HgN/A
2:30 AM48 °FSprinkles. Mostly cloudy.6 mph82%29.42 "HgN/A
2:00 AM48 °FSprinkles. Mostly cloudy.3 mph82%29.42 "HgN/A
1:30 AM48 °FSprinkles. Mostly cloudy.6 mph82%29.45 "HgN/A
1:00 AM48 °FSprinkles. Mostly cloudy.6 mph82%29.45 "HgN/A
12:30 AM48 °FSprinkles. Mostly cloudy.6 mph82%29.45 "HgN/A
12:00 AM48 °FSprinkles. Mostly cloudy.3 mph82%29.45 "HgN/A
11:30 PM
Jul 24
48 °FMostly cloudy.3 mph82%29.45 "HgN/A
11:00 PM48 °FMostly cloudy.6 mph82%29.45 "HgN/A
10:30 PM48 °FMostly cloudy.3 mph82%29.45 "HgN/A
10:00 PM48 °FSprinkles. Mostly cloudy.3 mph82%29.45 "HgN/A
9:30 PM48 °FSprinkles. Mostly cloudy.3 mph82%29.45 "HgN/A
9:00 PM50 °FMostly cloudy.3 mph82%29.45 "HgN/A
8:30 PM50 °FMostly cloudy.3 mph88%29.45 "HgN/A
8:00 PM50 °FSprinkles. Mostly cloudy.8 mph88%29.45 "HgN/A
7:30 PM50 °FSprinkles. Mostly cloudy.6 mph88%29.45 "HgN/A
Weather by CustomWeather, © 2014

See weather overviewHow to use our weather pages